owner,sensor,date,latitude,longitude,vertical_datum,sea_water_practical_salinity,qcFlag 
DISL,ioos:station:DISL:KATA:1,2013-11-01T00:00:00Z,30.2583,-88.2131,4.356,28.52,1111122 
DISL,ioos:station:DISL:KATA:1,2013-11-01T00:30:00Z,30.2583,-88.2131,4.364,28.72,1111122 
DISL,ioos:station:DISL:KATA:1,2013-11-01T01:00:00Z,30.2583,-88.2131,4.363,28.77,1111122 
DISL,ioos:station:DISL:KATA:1,2013-11-01T01:30:00Z,30.2583,-88.2131,4.384,28.75,1111122 
DISL,ioos:station:DISL:KATA:1,2013-11-01T02:00:00Z,30.2583,-88.2131,4.377,28.79,1111122 
DISL,ioos:station:DISL:KATA:1,2013-11-01T02:30:00Z,30.2583,-88.2131,4.394,28.78,1111122 
DISL,ioos:station:DISL:KATA:1,2013-11-01T03:00:00Z,30.2583,-88.2131,4.396,28.73,1111122 
DISL,ioos:station:DISL:KATA:1,2013-11-01T03:30:00Z,30.2583,-88.2131,4.394,28.7,1111122 
DISL,ioos:station:DISL:KATA:1,2013-11-01T04:00:00Z,30.2583,-88.2131,4.382,28.7,1111122 
DISL,ioos:station:DISL:KATA:1,2013-11-01T04:30:00Z,30.2583,-88.2131,4.357,28.68,1111122 
DISL,ioos:station:DISL:KATA:1,2013-11-01T05:00:00Z,30.2583,-88.2131,4.344,28.72,1111122 
DISL,ioos:station:DISL:KATA:1,2013-11-01T05:30:00Z,30.2583,-88.2131,4.306,28.74,1111122 
DISL,ioos:station:DISL:KATA:1,2013-11-01T06:00:00Z,30.2583,-88.2131,4.32,28.75,1111122 
DISL,ioos:station:DISL:KATA:1,2013-11-01T06:30:00Z,30.2583,-88.2131,4.298,28.73,1111122 
DISL,ioos:station:DISL:KATA:1,2013-11-01T07:00:00Z,30.2583,-88.2131,4.279,28.75,1111122 
DISL,ioos:station:DISL:KATA:1,2013-11-01T07:30:00Z,30.2583,-88.2131,4.233,28.74,1111122 
DISL,ioos:station:DISL:KATA:1,2013-11-01T08:00:00Z,30.2583,-88.2131,4.217,28.75,1111122 
DISL,ioos:station:DISL:KATA:1,2013-11-01T08:30:00Z,30.2583,-88.2131,4.208,28.71,1111122 
DISL,ioos:station:DISL:KATA:1,2013-11-01T09:00:00Z,30.2583,-88.2131,4.211,28.78,1111122 
DISL,ioos:station:DISL:KATA:1,2013-11-01T09:30:00Z,30.2583,-88.2131,4.204,28.77,1111122 
DISL,ioos:station:DISL:KATA:1,2013-11-01T10:00:00Z,30.2583,-88.2131,4.197,28.72,1111122 
DISL,ioos:station:DISL:KATA:1,2013-11-01T10:30:00Z,30.2583,-88.2131,4.17,28.71,1111122 
DISL,ioos:station:DISL:KATA:1,2013-11-01T11:00:00Z,30.2583,-88.2131,4.137,28.8,1111122 
DISL,ioos:station:DISL:KATA:1,2013-11-01T11:30:00Z,30.2583,-88.2131,4.105,28.81,1111122 
DISL,ioos:station:DISL:KATA:1,2013-11-01T12:00:00Z,30.2583,-88.2131,4.094,28.76,1111122 
DISL,ioos:station:DISL:KATA:1,2013-11-01T12:30:00Z,30.2583,-88.2131,4.097,28.79,1111122 
DISL,ioos:station:DISL:KATA:1,2013-11-01T13:00:00Z,30.2583,-88.2131,4.159,28.81,1111122 
DISL,ioos:station:DISL:KATA:1,2013-11-01T13:30:00Z,30.2583,-88.2131,4.16,28.58,1111122 
DISL,ioos:station:DISL:KATA:1,2013-11-01T14:00:00Z,30.2583,-88.2131,4.134,28.41,1111122 
DISL,ioos:station:DISL:KATA:1,2013-11-01T14:30:00Z,30.2583,-88.2131,4.127,28.39,1111122 
DISL,ioos:station:DISL:KATA:1,2013-11-01T15:00:00Z,30.2583,-88.2131,4.091,28.24,1111122 
DISL,ioos:station:DISL:KATA:1,2013-11-01T15:30:00Z,30.2583,-88.2131,4.059,28.22,1111122 
DISL,ioos:station:DISL:KATA:1,2013-11-01T16:00:00Z,30.2583,-88.2131,4.052,28.14,1111122 
DISL,ioos:station:DISL:KATA:1,2013-11-01T16:30:00Z,30.2583,-88.2131,4.065,27.91,1111122 
DISL,ioos:station:DISL:KATA:1,2013-11-01T17:00:00Z,30.2583,-88.2131,4.093,28.02,1111122 
DISL,ioos:station:DISL:KATA:1,2013-11-01T17:30:00Z,30.2583,-88.2131,4.122,28.23,1111122 
DISL,ioos:station:DISL:KATA:1,2013-11-01T18:00:00Z,30.2583,-88.2131,4.193,28.28,1111122 
DISL,ioos:station:DISL:KATA:1,2013-11-01T18:30:00Z,30.2583,-88.2131,4.223,28.36,1111122 
DISL,ioos:station:DISL:KATA:1,2013-11-01T19:00:00Z,30.2583,-88.2131,4.25,28.59,1111122 
DISL,ioos:station:DISL:KATA:1,2013-11-01T19:30:00Z,30.2583,-88.2131,4.27,28.6,1111122 
DISL,ioos:station:DISL:KATA:1,2013-11-01T20:00:00Z,30.2583,-88.2131,4.261,28.56,1111122 
DISL,ioos:station:DISL:KATA:1,2013-11-01T20:30:00Z,30.2583,-88.2131,4.269,28.49,1111122 
DISL,ioos:station:DISL:KATA:1,2013-11-01T21:00:00Z,30.2583,-88.2131,4.276,28.1,1111122 
DISL,ioos:station:DISL:KATA:1,2013-11-01T21:30:00Z,30.2583,-88.2131,4.284,28.42,1111122 
DISL,ioos:station:DISL:KATA:1,2013-11-01T22:00:00Z,30.2583,-88.2131,4.308,28.55,1111122 
DISL,ioos:station:DISL:KATA:1,2013-11-01T22:30:00Z,30.2583,-88.2131,4.351,28.58,1111122 
DISL,ioos:station:DISL:KATA:1,2013-11-01T23:00:00Z,30.2583,-88.2131,4.387,28.57,1111122 
DISL,ioos:station:DISL:KATA:1,2013-11-01T23:30:00Z,30.2583,-88.2131,4.427,28.56,1111122 
DISL,ioos:station:DISL:KATA:1,2013-11-02T00:00:00Z,30.2583,-88.2131,4.452,28.6,1111122 
DISL,ioos:station:DISL:KATA:1,2013-11-02T00:30:00Z,30.2583,-88.2131,4.472,28.61,1111122 
DISL,ioos:station:DISL:KATA:1,2013-11-02T01:00:00Z,30.2583,-88.2131,4.481,28.55,1111122 
DISL,ioos:station:DISL:KATA:1,2013-11-02T01:30:00Z,30.2583,-88.2131,4.484,28.22,1111122 
DISL,ioos:station:DISL:KATA:1,2013-11-02T02:00:00Z,30.2583,-88.2131,4.464,28.33,1111122 
DISL,ioos:station:DISL:KATA:1,2013-11-02T02:30:00Z,30.2583,-88.2131,4.447,28.3,1111122 
DISL,ioos:station:DISL:KATA:1,2013-11-02T03:00:00Z,30.2583,-88.2131,4.414,28.06,1111122 
DISL,ioos:station:DISL:KATA:1,2013-11-02T03:30:00Z,30.2583,-88.2131,4.372,28.0,1111122 
DISL,ioos:station:DISL:KATA:1,2013-11-02T04:00:00Z,30.2583,-88.2131,4.338,28.03,1111122 
DISL,ioos:station:DISL:KATA:1,2013-11-02T04:30:00Z,30.2583,-88.2131,4.293,27.82,1111122 
DISL,ioos:station:DISL:KATA:1,2013-11-02T05:00:00Z,30.2583,-88.2131,4.274,27.74,1111122 
DISL,ioos:station:DISL:KATA:1,2013-11-02T05:30:00Z,30.2583,-88.2131,4.242,27.67,1111122 
DISL,ioos:station:DISL:KATA:1,2013-11-02T06:00:00Z,30.2583,-88.2131,4.219,27.66,1111122 
DISL,ioos:station:DISL:KATA:1,2013-11-02T06:30:00Z,30.2583,-88.2131,4.193,27.49,1111122 
DISL,ioos:station:DISL:KATA:1,2013-11-02T07:00:00Z,30.2583,-88.2131,4.17,27.35,1111122 
DISL,ioos:station:DISL:KATA:1,2013-11-02T07:30:00Z,30.2583,-88.2131,4.129,27.28,1111122 
DISL,ioos:station:DISL:KATA:1,2013-11-02T08:00:00Z,30.2583,-88.2131,4.085,27.14,1111122 
DISL,ioos:station:DISL:KATA:1,2013-11-02T08:30:00Z,30.2583,-88.2131,4.051,27.01,1111122 
DISL,ioos:station:DISL:KATA:1,2013-11-02T09:00:00Z,30.2583,-88.2131,4.024,26.89,1111122 
DISL,ioos:station:DISL:KATA:1,2013-11-02T09:30:00Z,30.2583,-88.2131,4.0,26.84,1111122 
DISL,ioos:station:DISL:KATA:1,2013-11-02T10:00:00Z,30.2583,-88.2131,3.995,26.76,1111122 
DISL,ioos:station:DISL:KATA:1,2013-11-02T10:30:00Z,30.2583,-88.2131,3.99,26.73,1111122 
DISL,ioos:station:DISL:KATA:1,2013-11-02T11:00:00Z,30.2583,-88.2131,3.988,26.72,1111122 
DISL,ioos:station:DISL:KATA:1,2013-11-02T11:30:00Z,30.2583,-88.2131,3.996,26.76,1111122 
DISL,ioos:station:DISL:KATA:1,2013-11-02T12:00:00Z,30.2583,-88.2131,4.015,26.78,1111122 
DISL,ioos:station:DISL:KATA:1,2013-11-02T12:30:00Z,30.2583,-88.2131,4.032,26.87,1111122 
DISL,ioos:station:DISL:KATA:1,2013-11-02T13:00:00Z,30.2583,-88.2131,4.03,26.87,1111122 
DISL,ioos:station:DISL:KATA:1,2013-11-02T13:30:00Z,30.2583,-88.2131,4.019,26.85,1111122 
DISL,ioos:station:DISL:KATA:1,2013-11-02T14:00:00Z,30.2583,-88.2131,4.009,26.87,1111122 
DISL,ioos:station:DISL:KATA:1,2013-11-02T14:30:00Z,30.2583,-88.2131,3.997,26.91,1111122 
DISL,ioos:station:DISL:KATA:1,2013-11-02T15:00:00Z,30.2583,-88.2131,3.979,26.96,1111122 
DISL,ioos:station:DISL:KATA:1,2013-11-02T15:30:00Z,30.2583,-88.2131,3.997,27.0,1111122 
DISL,ioos:station:DISL:KATA:1,2013-11-02T16:00:00Z,30.2583,-88.2131,4.02,27.09,1111122 
DISL,ioos:station:DISL:KATA:1,2013-11-02T16:30:00Z,30.2583,-88.2131,4.049,27.11,1111122 
DISL,ioos:station:DISL:KATA:1,2013-11-02T17:00:00Z,30.2583,-88.2131,4.078,26.96,1111122 
DISL,ioos:station:DISL:KATA:1,2013-11-02T17:30:00Z,30.2583,-88.2131,4.104,27.0,1111122 
DISL,ioos:station:DISL:KATA:1,2013-11-02T18:00:00Z,30.2583,-88.2131,4.126,26.87,1111122 
DISL,ioos:station:DISL:KATA:1,2013-11-02T18:30:00Z,30.2583,-88.2131,4.14,26.81,1111122 
DISL,ioos:station:DISL:KATA:1,2013-11-02T19:00:00Z,30.2583,-88.2131,4.145,27.01,1111122 
DISL,ioos:station:DISL:KATA:1,2013-11-02T19:30:00Z,30.2583,-88.2131,4.145,27.07,1111122 
DISL,ioos:station:DISL:KATA:1,2013-11-02T20:00:00Z,30.2583,-88.2131,4.152,27.06,1111122 
DISL,ioos:station:DISL:KATA:1,2013-11-02T20:30:00Z,30.2583,-88.2131,4.152,27.13,1111122 
DISL,ioos:station:DISL:KATA:1,2013-11-02T21:00:00Z,30.2583,-88.2131,4.143,26.77,1111122 
DISL,ioos:station:DISL:KATA:1,2013-11-02T21:30:00Z,30.2583,-88.2131,4.16,26.86,1111122 
DISL,ioos:station:DISL:KATA:1,2013-11-02T22:00:00Z,30.2583,-88.2131,4.177,26.86,1111122 
DISL,ioos:station:DISL:KATA:1,2013-11-02T22:30:00Z,30.2583,-88.2131,4.196,26.86,1111122 
DISL,ioos:station:DISL:KATA:1,2013-11-02T23:00:00Z,30.2583,-88.2131,4.203,27.02,1111122 
DISL,ioos:station:DISL:KATA:1,2013-11-02T23:30:00Z,30.2583,-88.2131,4.209,26.88,1111122 
DISL,ioos:station:DISL:KATA:1,2013-11-03T00:00:00Z,30.2583,-88.2131,4.209,26.85,1111122 
DISL,ioos:station:DISL:KATA:1,2013-11-03T00:30:00Z,30.2583,-88.2131,4.231,26.8,1111122 
DISL,ioos:station:DISL:KATA:1,2013-11-03T01:00:00Z,30.2583,-88.2131,4.243,26.85,1111122 
DISL,ioos:station:DISL:KATA:1,2013-11-03T01:30:00Z,30.2583,-88.2131,4.241,26.86,1111122 
DISL,ioos:station:DISL:KATA:1,2013-11-03T02:00:00Z,30.2583,-88.2131,4.215,26.92,1111122 
DISL,ioos:station:DISL:KATA:1,2013-11-03T02:30:00Z,30.2583,-88.2131,4.187,26.85,1111122 
DISL,ioos:station:DISL:KATA:1,2013-11-03T03:00:00Z,30.2583,-88.2131,4.155,26.83,1111122 
DISL,ioos:station:DISL:KATA:1,2013-11-03T03:30:00Z,30.2583,-88.2131,4.165,26.68,1111122 
DISL,ioos:station:DISL:KATA:1,2013-11-03T04:00:00Z,30.2583,-88.2131,4.142,26.63,1111122 
DISL,ioos:station:DISL:KATA:1,2013-11-03T04:30:00Z,30.2583,-88.2131,4.11,26.77,1111122 
DISL,ioos:station:DISL:KATA:1,2013-11-03T05:00:00Z,30.2583,-88.2131,4.079,26.43,1111122 
DISL,ioos:station:DISL:KATA:1,2013-11-03T05:30:00Z,30.2583,-88.2131,4.049,26.18,1111122 
DISL,ioos:station:DISL:KATA:1,2013-11-03T06:00:00Z,30.2583,-88.2131,4.025,25.98,1111122 
DISL,ioos:station:DISL:KATA:1,2013-11-03T06:30:00Z,30.2583,-88.2131,3.993,25.87,1111122 
DISL,ioos:station:DISL:KATA:1,2013-11-03T07:00:00Z,30.2583,-88.2131,3.952,25.87,1111122 
DISL,ioos:station:DISL:KATA:1,2013-11-03T07:30:00Z,30.2583,-88.2131,3.912,25.81,1111122 
DISL,ioos:station:DISL:KATA:1,2013-11-03T08:00:00Z,30.2583,-88.2131,3.86,25.43,1111122 
DISL,ioos:station:DISL:KATA:1,2013-11-03T08:30:00Z,30.2583,-88.2131,3.814,25.16,1111122 
DISL,ioos:station:DISL:KATA:1,2013-11-03T09:00:00Z,30.2583,-88.2131,3.775,25.03,1111122 
DISL,ioos:station:DISL:KATA:1,2013-11-03T09:30:00Z,30.2583,-88.2131,3.741,25.13,1111122 
DISL,ioos:station:DISL:KATA:1,2013-11-03T10:00:00Z,30.2583,-88.2131,3.731,25.12,1111122 
DISL,ioos:station:DISL:KATA:1,2013-11-03T10:30:00Z,30.2583,-88.2131,3.708,25.27,1111122 
DISL,ioos:station:DISL:KATA:1,2013-11-03T11:00:00Z,30.2583,-88.2131,3.691,25.38,1111122 
DISL,ioos:station:DISL:KATA:1,2013-11-03T11:30:00Z,30.2583,-88.2131,3.693,25.37,1111122 
DISL,ioos:station:DISL:KATA:1,2013-11-03T12:00:00Z,30.2583,-88.2131,3.705,25.27,1111122 
DISL,ioos:station:DISL:KATA:1,2013-11-03T12:30:00Z,30.2583,-88.2131,3.73,25.34,1111122 
DISL,ioos:station:DISL:KATA:1,2013-11-03T13:00:00Z,30.2583,-88.2131,3.769,25.33,1111122 
DISL,ioos:station:DISL:KATA:1,2013-11-03T13:30:00Z,30.2583,-88.2131,3.805,25.31,1111122 
DISL,ioos:station:DISL:KATA:1,2013-11-03T14:00:00Z,30.2583,-88.2131,3.835,25.3,1111122 
DISL,ioos:station:DISL:KATA:1,2013-11-03T14:30:00Z,30.2583,-88.2131,3.864,25.23,1111122 
DISL,ioos:station:DISL:KATA:1,2013-11-03T15:00:00Z,30.2583,-88.2131,3.893,25.33,1111122 
DISL,ioos:station:DISL:KATA:1,2013-11-03T15:30:00Z,30.2583,-88.2131,3.912,25.37,1111122 
DISL,ioos:station:DISL:KATA:1,2013-11-03T16:00:00Z,30.2583,-88.2131,3.929,25.41,1111122 
DISL,ioos:station:DISL:KATA:1,2013-11-03T16:30:00Z,30.2583,-88.2131,3.944,25.46,1111122 
DISL,ioos:station:DISL:KATA:1,2013-11-03T17:00:00Z,30.2583,-88.2131,3.962,25.38,1111122 
DISL,ioos:station:DISL:KATA:1,2013-11-03T17:30:00Z,30.2583,-88.2131,3.984,25.23,1111122 
DISL,ioos:station:DISL:KATA:1,2013-11-03T18:00:00Z,30.2583,-88.2131,4.007,25.16,1111122 
DISL,ioos:station:DISL:KATA:1,2013-11-03T18:30:00Z,30.2583,-88.2131,4.03,23.98,1111122 
DISL,ioos:station:DISL:KATA:1,2013-11-03T19:00:00Z,30.2583,-88.2131,4.05,25.21,1111122 
DISL,ioos:station:DISL:KATA:1,2013-11-03T19:30:00Z,30.2583,-88.2131,4.074,25.31,1111122 
DISL,ioos:station:DISL:KATA:1,2013-11-03T20:00:00Z,30.2583,-88.2131,4.087,25.78,1111122 
DISL,ioos:station:DISL:KATA:1,2013-11-03T20:30:00Z,30.2583,-88.2131,4.098,25.93,1111122 
DISL,ioos:station:DISL:KATA:1,2013-11-03T21:00:00Z,30.2583,-88.2131,4.108,26.04,1111122 
DISL,ioos:station:DISL:KATA:1,2013-11-03T21:30:00Z,30.2583,-88.2131,4.124,26.26,1111122 
DISL,ioos:station:DISL:KATA:1,2013-11-03T22:00:00Z,30.2583,-88.2131,4.138,26.36,1111122 
DISL,ioos:station:DISL:KATA:1,2013-11-03T22:30:00Z,30.2583,-88.2131,4.155,26.4,1111122 
DISL,ioos:station:DISL:KATA:1,2013-11-03T23:00:00Z,30.2583,-88.2131,4.174,26.47,1111122 
DISL,ioos:station:DISL:KATA:1,2013-11-03T23:30:00Z,30.2583,-88.2131,4.198,26.48,1111122 
DISL,ioos:station:DISL:KATA:1,2013-11-04T00:00:00Z,30.2583,-88.2131,4.234,26.42,1111122 
DISL,ioos:station:DISL:KATA:1,2013-11-04T00:30:00Z,30.2583,-88.2131,4.265,26.43,1111122 
DISL,ioos:station:DISL:KATA:1,2013-11-04T01:00:00Z,30.2583,-88.2131,4.295,26.42,1111122 
DISL,ioos:station:DISL:KATA:1,2013-11-04T01:30:00Z,30.2583,-88.2131,4.314,26.51,1111122 
DISL,ioos:station:DISL:KATA:1,2013-11-04T02:00:00Z,30.2583,-88.2131,4.335,26.59,1111122 
DISL,ioos:station:DISL:KATA:1,2013-11-04T02:30:00Z,30.2583,-88.2131,4.349,26.6,1111122 
DISL,ioos:station:DISL:KATA:1,2013-11-04T03:00:00Z,30.2583,-88.2131,4.361,26.66,1111122 
DISL,ioos:station:DISL:KATA:1,2013-11-04T03:30:00Z,30.2583,-88.2131,4.352,26.72,1111122 
DISL,ioos:station:DISL:KATA:1,2013-11-04T04:00:00Z,30.2583,-88.2131,4.334,26.71,1111122 
DISL,ioos:station:DISL:KATA:1,2013-11-04T04:30:00Z,30.2583,-88.2131,4.303,26.66,1111122 
DISL,ioos:station:DISL:KATA:1,2013-11-04T05:00:00Z,30.2583,-88.2131,4.266,26.68,1111122 
DISL,ioos:station:DISL:KATA:1,2013-11-04T05:30:00Z,30.2583,-88.2131,4.222,26.72,1111122 
DISL,ioos:station:DISL:KATA:1,2013-11-04T06:00:00Z,30.2583,-88.2131,4.182,25.9,1111122 
DISL,ioos:station:DISL:KATA:1,2013-11-04T06:30:00Z,30.2583,-88.2131,4.129,26.05,1111122 
DISL,ioos:station:DISL:KATA:1,2013-11-04T07:00:00Z,30.2583,-88.2131,4.081,26.0,1111122 
DISL,ioos:station:DISL:KATA:1,2013-11-04T07:30:00Z,30.2583,-88.2131,4.023,25.88,1111122 
DISL,ioos:station:DISL:KATA:1,2013-11-04T08:00:00Z,30.2583,-88.2131,3.971,25.82,1111122 
DISL,ioos:station:DISL:KATA:1,2013-11-04T08:30:00Z,30.2583,-88.2131,3.909,25.48,1111122 
DISL,ioos:station:DISL:KATA:1,2013-11-04T09:00:00Z,30.2583,-88.2131,3.857,25.54,1111122 
DISL,ioos:station:DISL:KATA:1,2013-11-04T09:30:00Z,30.2583,-88.2131,3.814,25.52,1111122 
DISL,ioos:station:DISL:KATA:1,2013-11-04T10:00:00Z,30.2583,-88.2131,3.764,25.3,1111122 
DISL,ioos:station:DISL:KATA:1,2013-11-04T10:30:00Z,30.2583,-88.2131,3.728,25.23,1111122 
DISL,ioos:station:DISL:KATA:1,2013-11-04T11:00:00Z,30.2583,-88.2131,3.69,25.21,1111122 
DISL,ioos:station:DISL:KATA:1,2013-11-04T11:30:00Z,30.2583,-88.2131,3.678,25.22,1111122 
DISL,ioos:station:DISL:KATA:1,2013-11-04T12:00:00Z,30.2583,-88.2131,3.673,25.18,1111122 
DISL,ioos:station:DISL:KATA:1,2013-11-04T12:30:00Z,30.2583,-88.2131,3.675,25.2,1111122 
DISL,ioos:station:DISL:KATA:1,2013-11-04T13:00:00Z,30.2583,-88.2131,3.682,25.21,1111122 
DISL,ioos:station:DISL:KATA:1,2013-11-04T13:30:00Z,30.2583,-88.2131,3.682,25.23,1111122 
DISL,ioos:station:DISL:KATA:1,2013-11-04T14:00:00Z,30.2583,-88.2131,3.674,25.2,1111122 
DISL,ioos:station:DISL:KATA:1,2013-11-04T14:30:00Z,30.2583,-88.2131,3.669,25.17,1111122 
DISL,ioos:station:DISL:KATA:1,2013-11-04T15:00:00Z,30.2583,-88.2131,3.676,25.14,1111122 
DISL,ioos:station:DISL:KATA:1,2013-11-04T15:30:00Z,30.2583,-88.2131,3.693,25.15,1111122 
DISL,ioos:station:DISL:KATA:1,2013-11-04T16:00:00Z,30.2583,-88.2131,3.702,25.13,1111122 
DISL,ioos:station:DISL:KATA:1,2013-11-04T16:30:00Z,30.2583,-88.2131,3.715,25.08,1111122 
DISL,ioos:station:DISL:KATA:1,2013-11-04T17:00:00Z,30.2583,-88.2131,3.743,25.15,1111122 
DISL,ioos:station:DISL:KATA:1,2013-11-04T17:30:00Z,30.2583,-88.2131,3.777,25.23,1111122 
DISL,ioos:station:DISL:KATA:1,2013-11-04T18:00:00Z,30.2583,-88.2131,3.797,25.21,1111122 
DISL,ioos:station:DISL:KATA:1,2013-11-04T18:30:00Z,30.2583,-88.2131,3.821,25.29,1111122 
DISL,ioos:station:DISL:KATA:1,2013-11-04T19:00:00Z,30.2583,-88.2131,3.841,25.33,1111122 
DISL,ioos:station:DISL:KATA:1,2013-11-04T19:30:00Z,30.2583,-88.2131,3.863,25.37,1111122 
DISL,ioos:station:DISL:KATA:1,2013-11-04T20:00:00Z,30.2583,-88.2131,3.895,25.4,1111122 
DISL,ioos:station:DISL:KATA:1,2013-11-04T20:30:00Z,30.2583,-88.2131,3.924,25.42,1111122 
DISL,ioos:station:DISL:KATA:1,2013-11-04T21:00:00Z,30.2583,-88.2131,3.964,25.4,1111122 
DISL,ioos:station:DISL:KATA:1,2013-11-04T21:30:00Z,30.2583,-88.2131,4.003,25.41,1111122 
DISL,ioos:station:DISL:KATA:1,2013-11-04T22:00:00Z,30.2583,-88.2131,4.038,25.42,1111122 
DISL,ioos:station:DISL:KATA:1,2013-11-04T22:30:00Z,30.2583,-88.2131,4.066,25.42,1111122 
DISL,ioos:station:DISL:KATA:1,2013-11-04T23:00:00Z,30.2583,-88.2131,4.09,25.45,1111122 
DISL,ioos:station:DISL:KATA:1,2013-11-04T23:30:00Z,30.2583,-88.2131,4.131,24.67,1111122 
DISL,ioos:station:DISL:KATA:1,2013-11-05T00:00:00Z,30.2583,-88.2131,4.171,25.55,1111122 
DISL,ioos:station:DISL:KATA:1,2013-11-05T00:30:00Z,30.2583,-88.2131,4.202,25.64,1111122 
DISL,ioos:station:DISL:KATA:1,2013-11-05T01:00:00Z,30.2583,-88.2131,4.247,25.63,1111122 
DISL,ioos:station:DISL:KATA:1,2013-11-05T01:30:00Z,30.2583,-88.2131,4.296,25.53,1111122 
DISL,ioos:station:DISL:KATA:1,2013-11-05T02:00:00Z,30.2583,-88.2131,4.347,25.6,1111122 
DISL,ioos:station:DISL:KATA:1,2013-11-05T02:30:00Z,30.2583,-88.2131,4.385,25.76,1111122 
DISL,ioos:station:DISL:KATA:1,2013-11-05T03:00:00Z,30.2583,-88.2131,4.41,25.83,1111122 
DISL,ioos:station:DISL:KATA:1,2013-11-05T03:30:00Z,30.2583,-88.2131,4.419,25.83,1111122 
DISL,ioos:station:DISL:KATA:1,2013-11-05T04:00:00Z,30.2583,-88.2131,4.415,25.83,1111122 
DISL,ioos:station:DISL:KATA:1,2013-11-05T04:30:00Z,30.2583,-88.2131,4.416,25.7,1111122 
DISL,ioos:station:DISL:KATA:1,2013-11-05T05:00:00Z,30.2583,-88.2131,4.398,25.32,1111122 
DISL,ioos:station:DISL:KATA:1,2013-11-05T05:30:00Z,30.2583,-88.2131,4.379,25.57,1111122 
DISL,ioos:station:DISL:KATA:1,2013-11-05T06:00:00Z,30.2583,-88.2131,4.349,25.82,1111122 
DISL,ioos:station:DISL:KATA:1,2013-11-05T06:30:00Z,30.2583,-88.2131,4.328,25.82,1111122 
DISL,ioos:station:DISL:KATA:1,2013-11-05T07:00:00Z,30.2583,-88.2131,4.306,25.52,1111122 
DISL,ioos:station:DISL:KATA:1,2013-11-05T07:30:00Z,30.2583,-88.2131,4.284,25.07,1111122 
DISL,ioos:station:DISL:KATA:1,2013-11-05T08:00:00Z,30.2583,-88.2131,4.246,25.16,1111122 
DISL,ioos:station:DISL:KATA:1,2013-11-05T08:30:00Z,30.2583,-88.2131,4.183,25.62,1111122 
DISL,ioos:station:DISL:KATA:1,2013-11-05T09:00:00Z,30.2583,-88.2131,4.137,25.53,1111122 
DISL,ioos:station:DISL:KATA:1,2013-11-05T09:30:00Z,30.2583,-88.2131,4.078,25.44,1111122 
DISL,ioos:station:DISL:KATA:1,2013-11-05T10:00:00Z,30.2583,-88.2131,4.017,25.52,1111122 
DISL,ioos:station:DISL:KATA:1,2013-11-05T10:30:00Z,30.2583,-88.2131,3.918,25.71,1111122 
DISL,ioos:station:DISL:KATA:1,2013-11-05T11:00:00Z,30.2583,-88.2131,3.893,25.48,1111122 
DISL,ioos:station:DISL:KATA:1,2013-11-05T11:30:00Z,30.2583,-88.2131,3.836,25.33,1111122 
DISL,ioos:station:DISL:KATA:1,2013-11-05T12:00:00Z,30.2583,-88.2131,3.8,25.32,1111122 
DISL,ioos:station:DISL:KATA:1,2013-11-05T12:30:00Z,30.2583,-88.2131,3.75,24.93,1111122 
DISL,ioos:station:DISL:KATA:1,2013-11-05T13:00:00Z,30.2583,-88.2131,3.74,24.72,1111122 
DISL,ioos:station:DISL:KATA:1,2013-11-05T13:30:00Z,30.2583,-88.2131,3.749,24.88,1111122 
DISL,ioos:station:DISL:KATA:1,2013-11-05T14:00:00Z,30.2583,-88.2131,3.759,24.73,1111122 
DISL,ioos:station:DISL:KATA:1,2013-11-05T14:30:00Z,30.2583,-88.2131,3.769,24.7,1111122 
DISL,ioos:station:DISL:KATA:1,2013-11-05T15:00:00Z,30.2583,-88.2131,3.778,24.7,1111122 
DISL,ioos:station:DISL:KATA:1,2013-11-05T15:30:00Z,30.2583,-88.2131,3.789,24.33,1111122 
DISL,ioos:station:DISL:KATA:1,2013-11-05T16:00:00Z,30.2583,-88.2131,3.814,24.63,1111122 
DISL,ioos:station:DISL:KATA:1,2013-11-05T16:30:00Z,30.2583,-88.2131,3.834,24.39,1111122 
DISL,ioos:station:DISL:KATA:1,2013-11-05T17:00:00Z,30.2583,-88.2131,3.846,24.46,1111122 
DISL,ioos:station:DISL:KATA:1,2013-11-05T17:30:00Z,30.2583,-88.2131,3.88,24.38,1111122 
DISL,ioos:station:DISL:KATA:1,2013-11-05T18:00:00Z,30.2583,-88.2131,3.916,24.52,1111122 
DISL,ioos:station:DISL:KATA:1,2013-11-05T18:30:00Z,30.2583,-88.2131,3.954,24.61,1111122 
DISL,ioos:station:DISL:KATA:1,2013-11-05T19:00:00Z,30.2583,-88.2131,3.975,24.68,1111122 
DISL,ioos:station:DISL:KATA:1,2013-11-05T19:30:00Z,30.2583,-88.2131,4.005,24.75,1111122 
DISL,ioos:station:DISL:KATA:1,2013-11-05T20:00:00Z,30.2583,-88.2131,4.02,24.77,1111122 
DISL,ioos:station:DISL:KATA:1,2013-11-05T20:30:00Z,30.2583,-88.2131,4.047,24.92,1111122 
DISL,ioos:station:DISL:KATA:1,2013-11-05T21:00:00Z,30.2583,-88.2131,4.081,25.13,1111122 
DISL,ioos:station:DISL:KATA:1,2013-11-05T21:30:00Z,30.2583,-88.2131,4.081,25.14,1111122 
DISL,ioos:station:DISL:KATA:1,2013-11-05T22:00:00Z,30.2583,-88.2131,4.103,25.42,1111122 
DISL,ioos:station:DISL:KATA:1,2013-11-05T22:30:00Z,30.2583,-88.2131,4.134,25.44,1111122 
DISL,ioos:station:DISL:KATA:1,2013-11-05T23:00:00Z,30.2583,-88.2131,4.165,25.52,1111122 
DISL,ioos:station:DISL:KATA:1,2013-11-05T23:30:00Z,30.2583,-88.2131,4.188,25.65,1111122 
DISL,ioos:station:DISL:KATA:1,2013-11-06T00:00:00Z,30.2583,-88.2131,4.229,25.48,1111122 
DISL,ioos:station:DISL:KATA:1,2013-11-06T00:30:00Z,30.2583,-88.2131,4.261,25.58,1111122 
DISL,ioos:station:DISL:KATA:1,2013-11-06T01:00:00Z,30.2583,-88.2131,4.303,25.39,1111122 
DISL,ioos:station:DISL:KATA:1,2013-11-06T01:30:00Z,30.2583,-88.2131,4.348,25.39,1111122 
DISL,ioos:station:DISL:KATA:1,2013-11-06T02:00:00Z,30.2583,-88.2131,4.401,25.39,1111122 
DISL,ioos:station:DISL:KATA:1,2013-11-06T02:30:00Z,30.2583,-88.2131,4.441,25.36,1111122 
DISL,ioos:station:DISL:KATA:1,2013-11-06T03:00:00Z,30.2583,-88.2131,4.464,25.52,1111122 
DISL,ioos:station:DISL:KATA:1,2013-11-06T03:30:00Z,30.2583,-88.2131,4.47,25.53,1111122 
DISL,ioos:station:DISL:KATA:1,2013-11-06T04:00:00Z,30.2583,-88.2131,4.465,25.48,1111122 
DISL,ioos:station:DISL:KATA:1,2013-11-06T04:30:00Z,30.2583,-88.2131,4.466,25.4,1111122 
DISL,ioos:station:DISL:KATA:1,2013-11-06T05:00:00Z,30.2583,-88.2131,4.44,25.29,1111122 
DISL,ioos:station:DISL:KATA:1,2013-11-06T05:30:00Z,30.2583,-88.2131,4.422,25.27,1111122 
DISL,ioos:station:DISL:KATA:1,2013-11-06T06:00:00Z,30.2583,-88.2131,4.4,25.2,1111122 
DISL,ioos:station:DISL:KATA:1,2013-11-06T06:30:00Z,30.2583,-88.2131,4.403,25.24,1111122 
DISL,ioos:station:DISL:KATA:1,2013-11-06T07:00:00Z,30.2583,-88.2131,4.392,25.22,1111122 
DISL,ioos:station:DISL:KATA:1,2013-11-06T07:30:00Z,30.2583,-88.2131,4.369,25.22,1111122 
DISL,ioos:station:DISL:KATA:1,2013-11-06T08:00:00Z,30.2583,-88.2131,4.343,25.06,1111122 
DISL,ioos:station:DISL:KATA:1,2013-11-06T08:30:00Z,30.2583,-88.2131,4.304,24.97,1111122 
DISL,ioos:station:DISL:KATA:1,2013-11-06T09:00:00Z,30.2583,-88.2131,4.264,24.99,1111122 
DISL,ioos:station:DISL:KATA:1,2013-11-06T09:30:00Z,30.2583,-88.2131,4.214,25.03,1111122 
DISL,ioos:station:DISL:KATA:1,2013-11-06T10:00:00Z,30.2583,-88.2131,4.16,25.05,1111122 
DISL,ioos:station:DISL:KATA:1,2013-11-06T10:30:00Z,30.2583,-88.2131,4.106,25.0,1111122 
DISL,ioos:station:DISL:KATA:1,2013-11-06T11:00:00Z,30.2583,-88.2131,4.048,24.99,1111122 
DISL,ioos:station:DISL:KATA:1,2013-11-06T11:30:00Z,30.2583,-88.2131,3.995,25.13,1111122 
DISL,ioos:station:DISL:KATA:1,2013-11-06T12:00:00Z,30.2583,-88.2131,3.939,24.95,1111122 
DISL,ioos:station:DISL:KATA:1,2013-11-06T12:30:00Z,30.2583,-88.2131,3.892,24.81,1111122 
DISL,ioos:station:DISL:KATA:1,2013-11-06T13:00:00Z,30.2583,-88.2131,3.797,24.71,1111122 
DISL,ioos:station:DISL:KATA:1,2013-11-06T13:30:00Z,30.2583,-88.2131,3.807,24.48,1111122 
DISL,ioos:station:DISL:KATA:1,2013-11-06T14:00:00Z,30.2583,-88.2131,3.777,24.36,1111122 